Tracking 19246 objects as of 21-Sep-2018
HD Live streaming from Space Station
objects crossing your sky now

FENGYUN 1C DEB

Track FENGYUN 1C DEB now!
10-day predictions


NORAD ID: 31929
Int'l Code: 1999-025CME
Perigee: 746.5 km
Apogee: 862.6 km
Inclination: 98.7 °
Period: 100.8 minutes
Semi major axis: 7175 km
RCS: 0.0033 m2 (small)
Launch date: May 10, 1999
Source: People's Republic of China (PRC)
Launch site: Taiyaun Space Center, China (TSC)

Note: This is SATELLITE DEBRIS
aabbcc
Your satellite tracking list
Your tracking list is empty




NASA's NSSDC Master Catalog

Two Line Element Set (TLE):
1 31929U 99025CME 18263.07044210  .00000164  00000-0  80817-4 0  9996
2 31929  98.6870 354.1550 0080954 228.4958 130.9256 14.28303876590519
Source of the keplerian elements: AFSPC